📊 Raw Sensor Data

Showing records 36276 to 36300 of 84,893 total

ID Distance (ft) Battery V Battery A Int Temp (°F) Int Humid (%) Ext Temp (°F) Solar V RSSI SNR Time Stamp
48630 15.5 3.92 0 116 46 103 5.20 -69 8 08/08/2025 04:30 PM
48629 15.5 3.92 0 117 44 103 5.10 -68 8 08/08/2025 04:15 PM
48628 15.4 3.93 0 116 44 105 5.20 -68 8 08/08/2025 04:00 PM
48627 15.5 3.94 0 117 43 102 5.20 -67 8 08/08/2025 03:45 PM
48626 15.4 4.11 0 115 43 102 5.10 -68 7 08/08/2025 03:30 PM
48625 15.4 3.92 0 113 43 99 5.20 -68 7 08/08/2025 03:15 PM
48624 15.4 3.92 0 111 43 102 5.20 -68 8 08/08/2025 03:00 PM
48623 15.4 3.94 0 112 42 96 5.20 -68 8 08/08/2025 02:45 PM
48622 15.3 3.92 0 110 42 100 5.10 -67 8 08/08/2025 02:30 PM
48621 15.3 4.06 0 108 43 98 5.10 -68 7 08/08/2025 02:15 PM
48620 15.3 3.92 0 107 42 96 5.10 -67 8 08/08/2025 02:00 PM
48619 15.4 3.96 0 106 42 95 5.20 -68 8 08/08/2025 01:45 PM
48618 15.3 3.92 0 104 42 97 5.10 -67 7 08/08/2025 01:30 PM
48617 15.3 3.95 0 102 43 95 5.20 -68 8 08/08/2025 01:15 PM
48616 15.3 3.92 0 100 43 94 5.10 -68 8 08/08/2025 01:00 PM
48615 15.2 3.92 0 99 43 94 5.10 -68 7 08/08/2025 12:45 PM
48614 15.3 3.93 0 97 43 92 5.10 -67 8 08/08/2025 12:30 PM
48613 15.3 3.92 0 97 43 91 5.10 -68 7 08/08/2025 12:15 PM
48612 15.3 3.92 0 96 43 91 5.10 -68 7 08/08/2025 12:00 PM
48611 15.3 3.92 0 95 43 93 5.10 -68 8 08/08/2025 11:45 AM
48610 15.4 3.92 0 93 43 89 5.10 -70 8 08/08/2025 11:30 AM
48609 15.3 4.00 0 91 43 89 5.10 -67 8 08/08/2025 11:15 AM
48608 15.4 4.01 0 89 42 93 5.10 -70 8 08/08/2025 10:45 AM
48607 15.4 4.09 0 87 42 90 5.10 -69 8 08/08/2025 10:30 AM
48606 15.4 3.93 0 85 42 90 5.10 -69 8 08/08/2025 10:15 AM